AKDT,Max TemperatureF,Mean TemperatureF,Min TemperatureF,Max Dew PointF,MeanDew PointF,Min DewpointF,Max Humidity, Mean Humidity, Min Humidity, Max Sea Level PressureIn, Mean Sea Level PressureIn, Min Sea Level PressureIn, Max VisibilityMiles, Mean VisibilityMiles, Min VisibilityMiles, Max Wind SpeedMPH, Mean Wind SpeedMPH, Max Gust SpeedMPH,PrecipitationIn, CloudCover, Events, WindDirDegrees
2013-10-1,30,29,28,30,28,26,100,95,89,30.17,30.14,30.09,10,3,1,24,20,,0.00,8,Snow,83
2013-10-2,26,28,24,30,28,25,100,98,92,30.10,30.08,30.06,9,2,0,25,19,32,0.00,8,Fog-Snow,343
2013-10-3,24,26,23,27,24,21,100,94,86,30.06,30.00,29.93,10,2,0,16,9,,0.00,8,Fog-Snow,236
2013-10-4,27,24,21,28,24,21,100,94,86,29.94,29.93,29.92,10,7,1,4,0,,0.00,8,Snow,200
2013-10-5,30,27,24,29,26,23,100,96,92,29.92,29.81,29.72,10,4,0,14,6,,0.00,7,Fog-Snow,132
2013-10-6,19,24,17,29,23,14,100,93,84,29.71,29.67,29.64,10,5,0,13,7,,0.00,4,Fog-Snow,143
2013-10-7,25,22,17,27,23,16,100,95,86,29.84,29.79,29.66,10,4,0,10,5,,0.00,6,Fog-Snow,266
2013-10-8,30,27,24,28,27,23,100,94,88,29.82,29.54,29.02,10,6,0,29,14,34,0.00,5,Fog,113
2013-10-9,28,28,25,30,28,23,100,96,88,29.46,29.24,29.00,10,5,1,23,11,,0.00,8,Snow,269
2013-10-10,27,28,27,28,27,26,100,94,86,29.67,29.60,29.47,10,8,2,13,8,,0.00,8,Snow,201
2013-10-11,28,26,24,28,27,24,100,97,92,29.79,29.74,29.67,10,3,0,21,13,,0.00,8,Fog-Snow,115
2013-10-12,24,26,24,28,26,21,100,97,86,29.86,29.82,29.79,10,6,0,18,14,,0.00,7,Fog-Snow,119
2013-10-13,33,26,21,31,26,21,100,95,88,29.88,29.76,29.38,10,5,0,28,14,26,0.00,5,Fog-Snow,104
2013-10-14,30,32,30,30,29,28,100,93,89,29.59,29.42,29.32,10,6,2,29,16,,0.00,8,Snow,292
2013-10-15,25,29,24,29,27,22,96,91,87,29.76,29.71,29.60,10,9,5,26,18,,0.00,4,Snow,246
2013-10-16,28,24,21,28,25,19,100,94,88,30.00,29.93,29.75,10,7,0,13,4,,0.00,4,Fog-Snow,130
2013-10-17,30,29,28,30,29,27,100,95,92,29.92,29.76,29.53,10,10,8,18,15,,0.00,4,,110
2013-10-18,30,34,30,32,30,29,96,92,82,29.60,29.54,29.45,10,10,9,22,13,,0.02,4,,252
2013-10-19,30,28,26,30,28,25,100,97,92,29.59,29.45,29.35,10,2,0,16,9,,0.00,7,Fog-Snow,88
2013-10-20,28,28,25,30,28,24,100,96,92,29.73,29.55,29.35,10,5,0,14,9,,0.00,6,Fog,273
2013-10-21,23,30,25,30,28,23,100,93,82,30.00,29.86,29.73,10,8,0,22,14,,0.00,3,Fog,270
2013-10-22,28,24,21,26,23,19,96,93,91,30.19,30.13,30.02,10,10,10,13,8,,0.00,5,,240
2013-10-23,27,26,24,27,26,23,100,96,89,30.18,30.12,30.04,10,4,0,14,9,,0.00,8,Fog-Snow,273
2013-10-24,10,19,10,27,22,9,100,91,84,30.13,30.10,30.05,10,7,2,20,13,,0.00,7,Snow,283
2013-10-25,25,17,8,23,18,5,100,87,78,30.14,30.07,30.00,10,9,2,34,13,38,0.01,6,Snow,115
2013-10-26,27,22,17,27,23,15,100,93,88,30.46,30.30,30.06,10,8,2,18,10,,0.00,8,Snow,263
2013-10-27,21,26,23,26,25,22,96,93,86,30.43,30.14,29.74,10,10,7,25,19,18,0.00,4,,115
2013-10-28,30,26,21,29,26,20,96,89,76,29.73,29.42,29.06,10,10,8,17,10,,0.00,2,Snow,114
2013-10-29,26,28,26,29,27,23,100,97,88,29.51,29.25,29.01,10,2,0,30,19,36,0.00,8,Fog-Snow,311
2013-10-30,19,22,19,25,20,18,100,94,86,29.56,29.54,29.52,10,6,2,22,13,25,0.00,8,Snow,295
2013-10-31,19,16,12,17,12,10,100,93,88,29.84,29.69,29.54,10,4,0,13,5,,0.00,8,Fog-Snow,240